Rayong, Thailand

4:35 PM +07 on March 23, 2017 (GMT +0700)
U-Taphao International

Weather History for VTBU - January, 2014

Change the Weather History Date:

Sunday, January 5, 2014

  Actual Average Record
Temperature  
Mean Temperature 76 °F -  
Max Temperature 85 °F 87 °F 93 °F (2007)
Min Temperature 66 °F 71 °F 66 °F (1997)
Cooling Degree Days 10    
Growing Degree Days 26 (Base 50)    
Moisture  
Dew Point 66 °F    
Average Humidity 72    
Maximum Humidity 93    
Minimum Humidity 43    
Precipitation  
Precipitation 0.00 in - - ()
Sea Level Pressure  
Sea Level Pressure 29.84 in    
Wind  
Wind Speed 3 mph ()    
Max Wind Speed 9 mph    
Max Gust Speed -    
Visibility 1.4 miles    
Events      
Averages and records for this station are not official NWS values.
T = Trace of Precipitation, MM = Missing Value Source: Averaged Metar Reports

Daily Weather History Graph

Daily Weather History Graph

Search for Another Location

Airport or City:

Trip Planner

Search our weather history database for the weather conditions in past years. The results will help you decide how hot, cold, wet, or windy it might be!

Date:

Astronomy

Jan. 05, 2014 Rise Set
Actual Time 6:37 AM +07 6:02 PM +07
Civil Twilight 6:14 AM +07 6:25 PM +07
Nautical Twilight 5:48 AM +07 6:51 PM +07
Astronomical Twilight 5:21 AM +07 7:17 PM +07
Moon 9:45 AM +07 (1/5) 10:02 PM +07 (1/5)
Length of Visible Light 12h 10m
Length of Day
11h 24m
Waxing Crescent, 19% of the Moon is Illuminated
Jan 5
Waxing Crescent
Jan 8
First Quarter
Jan 16
Full
Jan 24
Last Quarter
Jan 31
New

Hourly Weather History & Observations

Time (+07) Temp. Heat Index Dew Point Humidity Pressure Visibility Wind Dir Wind Speed Gust Speed Precip Events Conditions
12:00 AM 71.6 °F - 66.2 °F 83% 29.86 in 0.6 mi North 3.5 mph - N/A   Mist
12:30 AM 69.8 °F - 66.2 °F 88% 29.86 in 0.6 mi NNW 3.5 mph - N/A   Mist
1:00 AM 73 °F - 71 °F 90% 29.86 in 3 mi Calm Calm - -   Mist
1:00 AM 68.0 °F - 64.4 °F 88% 29.86 in 0.6 mi NNW 3.5 mph - N/A   Mist
1:30 AM 69.8 °F - 64.4 °F 83% 29.86 in 0.6 mi North 3.5 mph - N/A   Mist
2:00 AM 68.0 °F - 64.4 °F 88% 29.83 in 0.6 mi North 3.5 mph - N/A   Mist
2:30 AM 68.0 °F - 64.4 °F 88% 29.83 in 0.6 mi North 3.5 mph - N/A   Mist
3:00 AM 68.0 °F - 64.4 °F 88% 29.83 in 0.6 mi NNW 3.5 mph - N/A   Mist
3:30 AM 66.2 °F - 62.6 °F 88% 29.83 in 0.6 mi NNW 3.5 mph - N/A   Mist
4:00 AM 70 °F - 67 °F 89% 29.83 in 2 mi Calm Calm - -   Mist
4:00 AM 66.2 °F - 62.6 °F 88% 29.83 in 0.6 mi NNW 3.5 mph - N/A   Mist
4:30 AM 66.2 °F - 60.8 °F 83% 29.83 in 0.6 mi NNW 3.5 mph - N/A   Mist
5:00 AM 66.2 °F - 62.6 °F 88% 29.83 in 0.6 mi NNW 3.5 mph - N/A   Mist
5:30 AM 66.2 °F - 60.8 °F 83% 29.83 in 0.6 mi NNW 3.5 mph - N/A   Mist
6:00 AM 66.2 °F - 62.6 °F 88% 29.86 in 0.6 mi NNW 3.5 mph - N/A   Mist
6:30 AM 66.2 °F - 60.8 °F 83% 29.86 in 0.6 mi NW 3.5 mph - N/A   Mist
7:00 AM 68 °F - 66 °F 93% 29.86 in 1 mi Calm Calm - -   Mist
7:00 AM 66.2 °F - 62.6 °F 88% 29.86 in 0.6 mi NNW 3.5 mph - N/A   Mist
7:30 AM 68.0 °F - 62.6 °F 83% 29.89 in 0.6 mi NW 3.5 mph - N/A   Mist
8:00 AM 69.8 °F - 62.6 °F 78% 29.89 in 0.6 mi NW 3.5 mph - N/A   Mist
8:30 AM 73.4 °F - 64.4 °F 73% 29.89 in 0.6 mi NNW 4.6 mph - N/A   Mist
9:00 AM 77.0 °F - 66.2 °F 69% 29.92 in 0.6 mi NNW 3.5 mph - N/A   Mist
9:30 AM 82.4 °F 85.4 °F 68.0 °F 62% 29.92 in 0.6 mi NW 2.3 mph - N/A   Haze
10:00 AM 81 °F - 69 °F 59% 29.90 in 4 mi Calm Calm - -   Mist
10:00 AM 84.2 °F 85.6 °F 64.4 °F 51% 29.89 in 1.2 mi SSE 3.5 mph - N/A   Haze
10:30 AM 86.0 °F 88.2 °F 66.2 °F 51% 29.89 in 1.2 mi South 4.6 mph - N/A   Haze
11:00 AM 86.0 °F 87.3 °F 64.4 °F 48% 29.89 in 1.2 mi SSE 3.5 mph - N/A   Haze
11:30 AM 87.8 °F 89.4 °F 64.4 °F 46% 29.86 in 1.2 mi SSW 4.6 mph - N/A   Haze
12:00 PM 87.8 °F 89.4 °F 64.4 °F 46% 29.86 in 1.9 mi South 4.6 mph - N/A   Haze
12:30 PM 87.8 °F 88.5 °F 62.6 °F 43% 29.86 in 1.9 mi South 4.6 mph - N/A   Haze
1:00 PM 84 °F - 71 °F 56% 29.84 in 4 mi SE 8.1 mph - -   Haze
1:00 PM 87.8 °F 88.5 °F 62.6 °F 43% 29.83 in 1.9 mi SSW 4.6 mph - N/A   Haze
1:30 PM 87.8 °F 89.4 °F 64.4 °F 46% 29.83 in 1.9 mi SW 6.9 mph - N/A   Haze
2:00 PM 86.0 °F 88.2 °F 66.2 °F 51% 29.80 in 1.9 mi SW 9.2 mph - N/A   Haze
2:30 PM 86.0 °F 88.2 °F 66.2 °F 51% 29.80 in 1.9 mi SSW 6.9 mph - N/A   Haze
3:00 PM 87.8 °F 91.4 °F 68.0 °F 52% 29.80 in 1.9 mi WSW 6.9 mph - N/A   Haze
3:30 PM 87.8 °F 92.6 °F 69.8 °F 55% 29.80 in 1.9 mi West 5.8 mph - N/A   Haze
4:00 PM 84 °F - 70 °F 54% 29.78 in 4 mi South 6.9 mph - -   Haze
4:00 PM 86.0 °F 88.2 °F 66.2 °F 51% 29.80 in 1.9 mi WNW 6.9 mph - N/A   Haze
4:30 PM 86.0 °F 89.4 °F 68.0 °F 55% 29.80 in 1.9 mi WNW 5.8 mph - N/A   Haze
5:00 PM 84.2 °F 87.3 °F 68.0 °F 58% 29.80 in 1.9 mi WNW 4.6 mph - N/A   Haze
5:30 PM 84.2 °F 88.4 °F 69.8 °F 62% 29.80 in 1.2 mi WNW 3.5 mph - N/A   Haze
6:00 PM 80.6 °F 83.9 °F 69.8 °F 70% 29.80 in 1.2 mi West 3.5 mph - N/A   Mist
6:30 PM 78.8 °F - 69.8 °F 74% 29.80 in 1.2 mi WNW 4.6 mph - N/A   Mist
7:00 PM 80 °F - 73 °F 75% 29.80 in 4 mi Calm Calm - -   Mist
7:00 PM 78.8 °F - 69.8 °F 74% 29.80 in 1.2 mi WNW 3.5 mph - N/A   Mist
7:30 PM 78.8 °F - 69.8 °F 74% 29.83 in 1.2 mi Calm Calm - N/A   Mist
8:00 PM 77.0 °F - 69.8 °F 78% 29.83 in 1.2 mi Calm Calm - N/A   Mist
8:30 PM 75.2 °F - 69.8 °F 83% 29.83 in 1.2 mi Calm Calm - N/A   Mist
9:00 PM 75.2 °F - 69.8 °F 83% 29.86 in 1.2 mi Calm Calm - N/A   Mist
9:30 PM 75.2 °F - 69.8 °F 83% 29.86 in 1.2 mi Calm Calm - N/A   Mist
10:00 PM 74 °F - 71 °F 88% 29.85 in 4 mi Calm Calm - -   Mist
10:00 PM 75.2 °F - 69.8 °F 83% 29.86 in 1.2 mi Calm Calm - N/A   Mist
10:30 PM 73.4 °F - 69.8 °F 88% 29.83 in 0.9 mi Calm Calm - N/A   Mist
11:00 PM 73.4 °F - 69.8 °F 88% 29.83 in 0.9 mi Calm Calm - N/A   Mist
11:30 PM 71.6 °F - 68.0 °F 88% 29.83 in 0.9 mi Calm Calm - N/A   Mist